DELTA 1 DEB, 42633

Orbit data source: Space-Track

DELTA 1 DEB, 42633 is space debris in SSO originally from a launch on Thu, 12 Jun 1975 UTC launched from the Air Force Western Test Range (AFWTR). Debris objects in space refer to the collection of defunct objects orbiting the Earth. Examples of debris include non-operational satellites, rocket bodies, and fragments generated from explosions, collisions, or faulty payload assembly.

Loading next visibility...
Identifier
42633, 1975-052LS
Orbit
SSO
Country
Flag of USUS
Related business
Manufacturer
Unknown
Mission
Spacecraft
Bus & Motor
Unknown
Mass
Unknown
Launch date (UTC)
1975-06-12 (51 years ago)
Launch vehicle
Unknown
Launch site
Air Force Western Test Range (AFWTR)
Object type
Payload
Rocket body
Debris
Shape & HBR
Unknown shape, 0.1 m
Radar Cross Section
Small (<0.1 m²)

Expand to show TLE details & history
Last TLE update: 2 weeks ago

TLE from 2 weeks ago
0 DELTA 1 DEB
1 42633U 75052LS  26156.32692129  .00000299  00000-0  74135-3 0  9994
2 42633  99.6600   1.0313 0126416  44.9753 316.1525 13.25596359605866
Epoch: 2026-06-05T07:50Z
TLE epoch observation values (Epoch: 2026-06-05T07:50:45.999Z)
Latitude
0.00005°
Longitude
-10.4188°
Altitude
1,097.991 km
Speed
7.336 km/s
True Right ascension
00h 04m 07s
True Declination
0° 00' 00"
Sunlit
Object was in daylight at epoch
Visualization orbit readout
Latitude
Unknown
Longitude
Unknown
Altitude
Unknown
Speed
Unknown
Apparent Right ascension
Unknown
Apparent Declination
Unknown
Sunlit
N/A
Visualization observer readout
Local Sidereal Time
21:40:19
Azimuth
Unknown
Elevation
Unknown
Doppler factor
Unknown
Orbital elements
Apogee altitude
1,256.054 km
Perigee altitude
1,065.447 km
Semi-major axis
7,538.888 km
Eccentricity
0.01264
Inclination
99.66°
RAAN
1.0313°
Arg. of periapsis
44.9753°
True anomaly
315.13747°
Mean anomaly
316.1525°
Eccentric anomaly
315.64614°
Mean motion
3.31575 °/min
Orbital period
108.57 mins
BSTAR
0.00074135
Loading maneuver chart data...
Computing Atmospheric mass density...
Loading historical data...
Loading historical data...
Loading historical data...
Loading historical data...
Loading historical data...
Loading historical data...
Loading historical data...

Documentation

Showing up to 5 results
|